826  
ASUS41 KALY 100210  
RWRALY  
 
NEW YORK STATE HOURLY WEATHER ROUNDUP  
NATIONAL WEATHER SERVICE ALBANY NY  
900 PM EST SUN DEC 09 2018  
 
NOTE: "FAIR" INDICATES FEW OR NO CLOUDS BELOW 12,000 FEET WITH NO  
SIGNIFICANT WEATHER AND/OR NO S TO VISIBILITY
.  
 
NYZ032-033-038>043-046>054-057>066-NYZ062>081-082-084-100300-  
EAST  
 
 
CITY SKY/WX TMP DP RH WIND PRES REMARKS
 
ALBANY MOCLDY 23 13 65 CALM 30.19S  
GLENS FALLS CLOUDY 28 19 69 S5 30.16F WCI 23  
POUGHKEEPSIE FAIR 29 14 53 VRB3 30.19F  
MONTGOMERY FAIR 26 16 65 CALM 30.18S  
WHITE PLAINS FAIR 29 16 58 W6 30.17S WCI 23  
ISLIP CLOUDY 31 23 72 NW5 30.19F WCI 26  
NEW YORK CITY CLOUDY 35 15 44 W6 30.19F WCI 30  
CENTRAL PARK FAIR 33 15 47 MISG 30.21F  

 
 
NYZ005>009-017-018-044>046-055-056-100300-  
CENTRAL  
 
 
CITY SKY/WX TMP DP RH WIND PRES REMARKS
 
FULTON CLOUDY 31 20 63 W5 30.19S WCI 26  
SYRACUSE MOCLDY 21 17 84 SW3 30.20S  
ROME CLOUDY 21 19 92 CALM 30.19F  
ELMIRA FAIR 22 15 75 E6 30.18R WCI 14  
BINGHAMTON FAIR 23 13 65 SW7 30.12S WCI 15  
MONTICELLO FAIR 21 14 74 NW6 30.14F WCI 13  

 
 
NYZ026>034-041>043-087-100300-  
NORTH  
 
 
CITY SKY/WX TMP DP RH WIND PRES REMARKS
 
WATERTOWN CLOUDY 32 25 75 W7 30.18S WCI 26  
FORT DRUM NOT AVBL  
MASSENA CLOUDY 32 23 69 SW9 30.14S WCI 24  
SARANAC LAKE CLOUDY 24 20 84 W9 30.05S WCI 14  
PLATTSBURGH CLOUDY 32 21 64 W6 30.11S WCI 26  

 
 
NYZ001>004-010>016-019>021-085-100300-  
WEST  
 
 
CITY SKY/WX TMP DP RH WIND PRES REMARKS
 
NIAGARA FALLS MOCLDY 21 17 84 SW3 30.22S FOG  
BUFFALO FAIR 24 19 81 W5 30.22S WCI 18  
DUNKIRK CLOUDY 27 23 85 SW5 30.23F WCI 22  
JAMESTOWN MOCLDY 21 19 93 NW3 30.17S  
WELLSVILLE FAIR 20 12 71 MISG 30.14S  
ROCHESTER FLURRIES 29 24 82 W7 30.21F WCI 22  
PENN YAN FAIR 27 19 72 NW5 30.19S WCI 22  

 
 
KEY  
WCI = WIND CHILL INDEX  
VSB = VISIBILITY  
HX = HEAT INDEX  

 
 
 
CLICK HERE TO GO TO PREVIOUS BULLETINS.

The Nexlab NY Page
The Nexlab VT Page
The Nexlab MA Page
The Nexlab CT Page Main Text Page